Location: Brno
(49.2000°N, 16.6330°E)
Time: 02:19:59
(UTC+02:00)

Vanguard 3 - Pass Details

Date: 05 August 2021
Orbit: 510 x 3260 km, 33.3° (Epoch: 19 September)

Event Time Altitude Azimuth Distance (km) Brightness Sun altitude
Rises 21:41:33 0° 267° (W) 6,187 12.4 -10.9°
Reaches altitude 10° 21:45:37 10° 260° (W) 5,478 11.9 -11.4°
Maximum altitude 22:01:03 39° 200° (SSW) 4,201 10.5 -13.2°
Enters shadow 22:15:02 17° 146° (SSE) 5,504 10.7 -14.7°
Drops below altitude 10° 22:18:00 10° 141° (SE) 5,964 - -15.0°
Sets 22:22:43 0° 134° (SE) 6,763 - -15.5°
